Weather History for Dayton Wright, OH

Change the Weather History Date:

Tuesday, November 26, 2013

  Actual Average (KFFO) Record (KFFO)
Temperature  
Mean Temperature 32 °F -  
Max Temperature 35 °F 47 °F 64 °F (2006)
Min Temperature 30 °F 30 °F 22 °F (2010)
Degree Days  
Heating Degree Days 32    
Moisture  
Dew Point 29 °F    
Average Humidity 86    
Maximum Humidity 93    
Minimum Humidity 75    
Precipitation  
Precipitation 0.02 in - - ()
Sea Level Pressure  
Sea Level Pressure 30.06 in    
Wind  
Wind Speed 4 mph (West)    
Max Wind Speed 14 mph    
Max Gust Speed -    
Visibility 5 miles    
Events Snow    
Averages and records for this station are not official NWS values.
T = Trace of Precipitation, MM = Missing Value Source: NWS Daily Summary

Daily Weather History Graph

Daily Weather History Graph

Search for Another Location

Airport:

Trip Planner

Search our weather history database for the weather conditions in past years. The results will help you decide how hot, cold, wet, or windy it might be!

Date:

Astronomy

Nov. 26, 2013 Rise Set
Actual Time 7:33 AM EST 5:14 PM EST
Civil Twilight 7:03 AM EST 5:44 PM EST
Nautical Twilight 6:30 AM EST 6:17 PM EST
Astronomical Twilight 5:58 AM EST 6:49 PM EST
Moon 12:37 AM EST (11/26) 1:19 PM EST (11/26)
Length of Visible Light 10h 40m
Length of Day
9h 41m
Last Quarter, 41% of the Moon is Illuminated
Nov 26
Last Quarter
Dec 2
New
Dec 9
First Quarter
Dec 17
Full
Dec 25
Last Quarter

Hourly Weather History & Observations

Time (EST) Temp. Windchill Dew Point Humidity Pressure Visibility Wind Dir Wind Speed Gust Speed Precip Events Conditions
12:53 AM 32.0 °F 28.7 °F 28.0 °F 85% 30.22 in 10.0 mi SW 3.5 mph - N/A   Overcast
1:09 AM 32.0 °F 28.7 °F 28.4 °F 87% 30.18 in 9.0 mi SW 3.5 mph - N/A   Overcast
1:41 AM 32.0 °F 25.6 °F 28.4 °F 87% 30.17 in 2.5 mi SSW 6.9 mph - 0.00 in Snow Light Snow
1:51 AM 32.0 °F 26.4 °F 28.4 °F 87% 30.17 in 3.0 mi SW 5.8 mph - 0.00 in Snow Light Snow
1:53 AM 32.0 °F 27.5 °F 28.0 °F 85% 30.19 in 2.5 mi SW 4.6 mph - 0.00 in Snow Light Snow
2:02 AM 32.0 °F 27.5 °F 28.4 °F 87% 30.17 in 2.0 mi SW 4.6 mph - 0.00 in Snow Light Snow
2:26 AM 32.0 °F 27.5 °F 28.4 °F 87% 30.16 in 3.0 mi SSW 4.6 mph - 0.00 in Snow Light Snow
2:34 AM 32.0 °F 27.5 °F 28.4 °F 87% 30.16 in 3.0 mi SSW 4.6 mph - 0.00 in Snow Light Snow
2:53 AM 32.0 °F 26.4 °F 28.9 °F 88% 30.19 in 4.0 mi SW 5.8 mph - 0.00 in   Overcast
3:53 AM 32.0 °F 27.5 °F 28.9 °F 88% 30.18 in 3.0 mi SW 4.6 mph - 0.01 in Snow Light Snow
4:39 AM 32.0 °F 28.7 °F 28.4 °F 87% 30.12 in 6.0 mi SW 3.5 mph - 0.00 in   Overcast
4:53 AM 32.0 °F 28.7 °F 30.0 °F 92% 30.14 in 4.0 mi SSW 3.5 mph - 0.00 in   Overcast
5:53 AM 32.0 °F 27.5 °F 30.0 °F 92% 30.15 in 4.0 mi SSW 4.6 mph - N/A   Overcast
6:08 AM 32.0 °F 28.7 °F 30.2 °F 93% 30.12 in 4.0 mi South 3.5 mph - N/A   Overcast
6:36 AM 32.0 °F 28.7 °F 30.2 °F 93% 30.11 in 5.0 mi SSW 3.5 mph - N/A   Overcast
6:53 AM 32.0 °F 27.5 °F 30.0 °F 92% 30.13 in 5.0 mi South 4.6 mph - N/A   Overcast
7:39 AM 32.0 °F 28.7 °F 30.2 °F 93% 30.07 in 5.0 mi SE 3.5 mph - N/A   Overcast
7:53 AM 32.0 °F 27.5 °F 28.9 °F 88% 30.09 in 4.0 mi SE 4.6 mph - N/A   Overcast
8:11 AM 32.0 °F 28.7 °F 30.2 °F 93% 30.10 in 4.0 mi SSW 3.5 mph - N/A   Overcast
8:53 AM 32.0 °F - 28.9 °F 88% 30.11 in 4.0 mi Calm Calm - N/A   Overcast
9:09 AM 32.0 °F - 28.4 °F 87% 30.07 in 4.0 mi Calm Calm - N/A   Overcast
9:53 AM 33.1 °F - 30.0 °F 89% 30.11 in 4.0 mi Calm Calm - N/A   Overcast
10:24 AM 33.8 °F - 28.4 °F 81% 30.09 in 2.5 mi Calm Calm - 0.00 in Snow Light Snow
10:36 AM 33.8 °F - 30.2 °F 87% 30.08 in 1.5 mi Calm Calm - 0.00 in Snow Light Snow
10:53 AM 33.1 °F - 30.0 °F 89% 30.10 in 1.5 mi Calm Calm - 0.00 in Snow Light Snow
11:05 AM 33.8 °F - 30.2 °F 87% 30.07 in 1.2 mi Calm Calm - 0.01 in Snow Light Snow
11:43 AM 33.8 °F - 30.2 °F 87% 30.05 in 1.8 mi Calm Calm - 0.01 in Snow Light Snow
11:50 AM 33.8 °F - 30.2 °F 87% 30.05 in 1.8 mi Calm Calm - 0.01 in Snow Light Snow
11:53 AM 33.1 °F - 30.0 °F 89% 30.07 in 2.0 mi Calm Calm - 0.01 in Snow Light Snow
12:06 PM 33.8 °F - 30.2 °F 87% 30.04 in 3.0 mi Calm Calm - 0.00 in Snow Light Snow
12:39 PM 33.8 °F 30.8 °F 30.2 °F 87% 30.01 in 6.0 mi North 3.5 mph - 0.00 in   Overcast
12:42 PM 33.8 °F 30.8 °F 30.2 °F 87% 30.00 in 5.0 mi North 3.5 mph - 0.00 in   Overcast
12:53 PM 34.0 °F 31.0 °F 30.0 °F 85% 30.02 in 5.0 mi North 3.5 mph - 0.00 in   Overcast
1:53 PM 34.0 °F 29.8 °F 30.0 °F 85% 29.99 in 8.0 mi NNW 4.6 mph - N/A   Overcast
2:20 PM 35.6 °F 32.8 °F 30.2 °F 81% 29.95 in 9.0 mi NNE 3.5 mph - N/A   Overcast
2:53 PM 35.1 °F 31.0 °F 30.0 °F 82% 29.96 in 7.0 mi North 4.6 mph - N/A   Overcast
3:32 PM 33.8 °F 29.6 °F 28.4 °F 81% 29.93 in 3.0 mi NNW 4.6 mph - 0.00 in Snow Light Snow
3:53 PM 34.0 °F - 30.0 °F 85% 29.97 in 5.0 mi Calm Calm - 0.00 in Snow Light Snow
4:34 PM 33.8 °F 28.6 °F 28.4 °F 81% 29.93 in 4.0 mi North 5.8 mph - 0.00 in Snow Light Snow
4:53 PM 34.0 °F 29.8 °F 28.9 °F 82% 29.96 in 4.0 mi NNW 4.6 mph - 0.00 in Snow Light Snow
5:28 PM 33.8 °F 26.4 °F 28.4 °F 81% 29.91 in 5.0 mi NNW 9.2 mph - 0.00 in Snow Light Snow
5:53 PM 33.1 °F 26.9 °F 27.0 °F 78% 29.94 in 8.0 mi North 6.9 mph - 0.00 in   Overcast
6:53 PM 33.1 °F 27.7 °F 27.0 °F 78% 29.95 in 10.0 mi NNW 5.8 mph - N/A   Overcast
7:27 PM 33.8 °F 27.7 °F 26.6 °F 75% 29.92 in 8.0 mi NNW 6.9 mph - N/A   Overcast
7:53 PM 32.0 °F 24.2 °F 27.0 °F 82% 29.94 in 8.0 mi NNW 9.2 mph - N/A   Overcast
8:53 PM 32.0 °F 25.6 °F 26.1 °F 79% 29.95 in 9.0 mi NW 6.9 mph - N/A   Overcast
9:53 PM 30.9 °F 27.5 °F 25.0 °F 79% 29.94 in 10.0 mi NW 3.5 mph - N/A   Overcast
10:53 PM 32.0 °F 26.4 °F 26.1 °F 79% 29.94 in 10.0 mi NW 5.8 mph - N/A   Overcast
11:53 PM 33.1 °F 23.4 °F 26.1 °F 75% 29.94 in 10.0 mi NNW 13.8 mph - N/A   Overcast